[Iaude] MPEC K106: 2024 KN [a=2.29,e=0.67,i=30.5,H=21.7,PHA]

mpec at cfa.harvard.edu mpec at cfa.harvard.edu
Tue May 28 09:57:23 EDT 2024


M.P.E.C. 2024-K106                                 Issued 2024 May 28, 13:56 UT

     The Minor Planet Electronic Circulars contain information on unusual
         minor planets, routine data on comets and natural satellites,
         and occasional editorial announcements.  They are published
    on behalf of Division F of the International Astronomical Union by the
          Minor Planet Center, Smithsonian Astrophysical Observatory,
                          Cambridge, MA 02138, U.S.A.
			  
             Prepared using the Tamkin Foundation Computer Network

                              MPC at CFA.HARVARD.EDU
            URL https://www.minorplanetcenter.net/    ISSN 1523-6714

                                    2024 KN                                     


Observations:
     K24K00N  C2024 05 02.48324916 25 00.124-15 11 37.47         22.31GVEK106F51
     K24K00N  C2024 05 02.49450716 24 59.707-15 11 07.42         22.46GVEK106F51
     K24K00N  C2024 05 02.51761216 24 58.867-15 10 06.35         22.35GVEK106F51
     K24K00N  C2024 05 06.53806216 22 31.649-11 54 33.59         21.12GVEK106F51
     K24K00N  C2024 05 06.54728916 22 31.202-11 54 04.18         22.11GVEK106F51
     K24K00N  C2024 05 06.56042616 22 30.558-11 53 22.05         21.74GVEK106F51
     K24K00N* C2024 05 27.30089415 52 24.899+16 05 21.29         21.20wXEK106F52
     K24K00N  C2024 05 27.32566415 52 21.331+16 08 02.10         21.33wXEK106F52
     K24K00N  C2024 05 27.33805415 52 19.535+16 09 22.71         21.20wXEK106F52
     K24K00N  C2024 05 27.39740315 52 09.730+16 15 39.95         21.0 GVEK106H01
     K24K00N  C2024 05 27.40132915 52 09.167+16 16 05.23         21.3 GVEK106H01
     K24K00N  C2024 05 27.41327615 52 07.462+16 17 22.36         21.4 GVEK106H01
     K24K00N  C2024 05 27.41854815 52 06.710+16 17 56.53         21.0 GVEK106H01
     K24K00N  C2024 05 27.46436815 52 01.036+16 23 00.60         21.24GVEK106F51
     K24K00N  C2024 05 27.46518415 52 00.921+16 23 05.62         20.56GVEK106F51
     K24K00N KC2024 05 28.13837315 50 28.67 +17 36 02.0          21.0 GVEK106H21
     K24K00N KC2024 05 28.14169015 50 28.19 +17 36 23.6          21.0 GVEK106H21
     K24K00N KC2024 05 28.14500615 50 27.69 +17 36 45.4          21.3 GVEK106H21
     K24K00N  C2024 05 28.23101015 50 15.318+17 46 11.45         21.3 GVEK106H01
     K24K00N  C2024 05 28.23479215 50 14.751+17 46 36.24         21.0 GVEK106H01
     K24K00N  C2024 05 28.24770515 50 12.807+17 48 01.13         21.3 GVEK106H01
     K24K00N  C2024 05 28.25223415 50 12.130+17 48 30.65         21.1 GVEK106H01
     K24K00N KC2024 05 28.32011015 50 02.022+17 55 56.68         21.16GVEK106I52
     K24K00N KC2024 05 28.32288415 50 01.586+17 56 14.78         21.23GVEK106I52
     K24K00N KC2024 05 28.32564815 50 01.169+17 56 32.89         21.76GVEK106I52

Observer details:
F51 Pan-STARRS 1, Haleakala.  Observers J. Herman, T. Lowe, P. Minguez, A.
    Schultz, I. Smith.  Measurers K. Chambers, T. de Boer, J. Fairlamb, H.
    Gao, M. Huber, C.-C. Lin, E. Magnier, Y. Ramanjooloo, R. Wainscoat, R.
    Weryk.  1.8-m Ritchey-Chretien + CCD.
F52 Pan-STARRS 2, Haleakala.  Observers J. Herman, T. Lowe, P. Minguez, A.
    Schultz, I. Smith.  Measurers K. Chambers, T. de Boer, J. Fairlamb, H.
    Gao, M. Huber, C.-C. Lin, E. Magnier, Y. Ramanjooloo, R. Wainscoat, R.
    Weryk.  1.8-m Ritchey-Chretien + CCD.
H01 Magdalena Ridge Observatory, Socorro.  Observers W. H. Ryan, E. V. Ryan.
    Measurer W. H. Ryan.  2.4-m f/8.9 Ritchey-Chretien + CCD.
H21 Astronomical Research Observatory, Westfield.  Observer R. Holmes.
    Measurers T. Linder, R. Holmes, L. Horn.  0.76-m f/3.0 astrograph + CCD.
I52 Steward Observatory, Mt. Lemmon Station.  Observer R. A. Kowalski.
    Measurers T. Beuden, V. F. Carvajal, D. Fay, J. B. Fazekas, D. C. Fuls, A.
    R. Gibbs, A. D. Grauer, H. Groeller, J. K. Hogan, R. A. Kowalski, S. M.
    Larson, G. J. Leonard, D. Rankin, R. L. Seaman, F. C. Shelly, K. W.
    Wierzchos.  1.0-m prime focus + CCD.

Orbital elements:
2024 KN                                             PHA, Earth MOID = 0.0076 AU
Epoch 2024 Mar. 31.0 TT = JDT 2460400.5                 MPC                     
M 322.73569              (2000.0)            P               Q                  
n   0.28516882     Peri.  112.02575     +0.84066256     +0.39259275             
a   2.2859568      Node   227.21825     -0.43238438     +0.90131916             
e   0.6723595      Incl.   30.54823     +0.32608312     +0.18301561             
P   3.46           H   21.78          G   0.15           U   7                  
Residuals in seconds of arc
240502 F51  0.2+  0.0     240527 H01  0.1-  0.2-    240528 H01  0.2-  0.0
240502 F51  0.0   0.2+    240527 H01  0.2-  0.2-    240528 H01  0.2-  0.0
240502 F51  0.3-  0.3-    240527 H01  0.1-  0.1-    240528 H01  0.2-  0.1+
240506 F51  0.1-  0.0     240527 H01  0.1-  0.1+    240528 H01  0.2-  0.1-
240506 F51  0.1+  0.0     240527 F51  0.2-  0.1+    240528 I52  0.2+  0.2+
240506 F51  0.2+  0.1+    240527 F51  0.1-  0.2-    240528 I52  0.1-  0.1+
240527 F52  0.3-  0.2-    240528 H21  0.1+  0.1+    240528 I52  0.1-  0.1+
240527 F52  0.2-  0.1-    240528 H21  0.3+  0.1-
240527 F52  0.2-  0.2+    240528 H21  0.2+  0.0

Ephemeris:
2024 KN                  a,e,i = 2.29, 0.67, 31                  q = 0.7490
Date    TT    R. A. (2000) Decl.     Delta      r    Elong.  Phase     V
2024 04 28    16 26 39.3 -18 11 32   0.6569  1.6089   149.8    18.3    22.8
...
2024 05 13    16 16 29.2 -05 19 23   0.4669  1.4599   161.0    13.0    21.7
...
2024 05 21    16 04 59.3 +05 30 27   0.3953  1.3785   154.1    18.7    21.4
...
2024 05 27    15 53 04.7 +15 33 01   0.3589  1.3168   142.7    27.8    21.4
2024 05 28    15 50 47.5 +17 21 02   0.3544  1.3065   140.5    29.5    21.4
2024 05 29    15 48 24.9 +19 10 39   0.3503  1.2962   138.3    31.3    21.4
...
2024 06 04    15 32 07.9 +30 25 29   0.3357  1.2342   124.1    42.9    21.5
...
2024 06 12    15 04 18.6 +44 47 11   0.3392  1.1518   105.2    58.3    21.8
...
2024 06 27    13 41 44.4 +64 54 38   0.3905  1.0020    76.8    80.9    22.6

A. U. Tomatic                (C) Copyright 2024 MPC           M.P.E.C. 2024-K106





More information about the Iaude mailing list